Regional Weather Roundup
Issued by NWS Wilmington, NC

Home | Current Version | Previous Version | Text Only | Print | Product List | Glossary On
Versions: 1 2 3 4 5 6 7 8 9 10 11 12 13 14 15 16 17 18 19 20 21 22 23 24 25 26 27 28 29 30 31 32 33 34 35 36 37 38 39 40 41 42 43 44 45 46 47 48 49 50
000
ASUS42 KILM 041113
RWRILM
RWRILM
REGIONAL HOURLY WEATHER ROUNDUP
NATIONAL WEATHER SERVICE WILMINGTON NC
700 AM EDT SAT JUL 04 2015

NOTE: "FAIR" INDICATES FEW OR NO CLOUDS BELOW 12,000 FEET WITH NO
SIGNIFICANT WEATHER AND/OR OBSTRUCTIONS TO VISIBILITY.

...............WFO WILMINGTON COUNTY WARNING AREA...............

......COASTAL NC AND SC COUNTIES......

CITY           SKY/WX    TMP DP  RH WIND       PRES   REMARKS
WILMINGTON     PTCLDY    78  70  76 SW12      29.99R
N MYRTLE BEACH CLOUDY    77  67  71 W9G18     30.03R
MYRTLE BEACH   MOCLDY    75  66  73 W14       30.06R

......INLAND NC AND SC COUNTIES.......

CITY           SKY/WX    TMP DP  RH WIND       PRES   REMARKS
LUMBERTON      PTCLDY    76  69  79 SW10      29.97S
ELIZABETHTOWN  PTCLDY    76  71  86 SW10      30.00R
WHITEVILLE     LGT RAIN  76  68  75 SW9G18    29.99S
FLORENCE       CLOUDY    72  67  84 SW9       30.01R
DARLINGTON     CLOUDY    73  66  78 SW14      30.01R

....................REST OF NORTH CAROLINA......................

.........EASTERN NC.........

CITY           SKY/WX    TMP DP  RH WIND       PRES   REMARKS
CAPE HATTERAS  PTSUNNY   77  70  79 W15G23    29.95R
JACKSONVILLE   CLEAR     72  66  83 SW6       29.98S
MOREHEAD CITY  PTSUNNY   79  73  82 W12       29.98R
KENANSVILLE    CLEAR     73  69  89 SW3       29.98S
NEW BERN       SUNNY     74  69  85 W9        29.98R
ELIZABETH CITY CLOUDY    74  71  91 W12       29.90R

.........CENTRAL NC.........

CITY           SKY/WX    TMP DP  RH WIND       PRES   REMARKS
RALEIGH DURHAM PTCLDY    71  69  93 SW9       29.95R
ROCKY MOUNT    SUNNY     73  70  90 SW7       29.95R
ROANOKE RAPIDS NOT AVBL
FAYETTEVILLE   CLEAR     75  69  81 SW10      29.96R
HOFFMAN        CLOUDY    76  69  80 SW12      30.00S

.........WESTERN NC.........

CITY           SKY/WX    TMP DP  RH WIND       PRES   REMARKS
CHARLOTTE      CLOUDY    74  67  78 SW15G21   30.00R
GREENSBORO     MOCLDY    69  68  96 SW7       29.95R
HICKORY        NOT AVBL
BOONE          NOT AVBL
ASHEVILLE      NOT AVBL

.....................REST OF SOUTH CAROLINA.....................

.........EASTERN SC.........

CITY           SKY/WX    TMP DP  RH WIND       PRES   REMARKS
CHARLESTON     PTCLDY    71  68  90 N6        30.06R
BEAUFORT MCAS  CLEAR     77  73  87 NW5       30.08R
HILTON HEAD    PTCLDY    79  73  83 SW6       30.07R

.........CENTRAL SC.........

CITY           SKY/WX    TMP DP  RH WIND       PRES   REMARKS
COLUMBIA       CLOUDY    71  66  84 SW7       30.03F
ORANGEBURG     CLOUDY    70  67  90 SW5       30.07R
SUMTER SHAW    CLOUDY    71  68  91 SW12      30.03R

.........WESTERN SC.........

CITY           SKY/WX    TMP DP  RH WIND       PRES   REMARKS
GREENVILLE     NOT AVBL
ROCK HILL      CLOUDY    73  69  87 SW10G22   30.01R
ANDERSON       CLOUDY    73  68  84 SW9       30.02F
CLEMSON        NOT AVBL
GREENWOOD      LGT RAIN  69  67  93 W10       30.04F


...................COASTAL AND OFFSHORE REPORTS..................

................LOCAL PIERS AND NC RESERVE................


STATION/POSITION TIME  SKY/WX   TEMP    WIND        PRES    VSBY
                                AIR SEA DIR/SP/G
                 (UTC)          (F)     (DEG/KT/KT) (MB)    (MI)
JOHNY MRCER PIER 1000            79 79  240/ 14/ 19 1014.6R
NC RESRV MASNBRO NOT AVBL
OCEAN CREST PIER NOT AVBL
SPRINGMAID  PIER 1000            76 81  250/ 10/ 16 1016.5R


................COASTAL AND OFFSHORE BUOYS................


STATION/POSITION TIME  SKY/WX   TEMP    WIND        PRES    VSBY
                                AIR SEA DIR/SP/G
                 (UTC)          (F)     (DEG/KT/KT) (MB)    (MI)
DIMNDSHOAL 41025 1050            80 81  240/ 25/ 29 1013.6R
WVE H/P(F/S)=  8/ 7 WND WVE H/P(F/S)=  7/ 7 SWL H/P/D(F/S/D)=  3/170/14

CAPE LOOKOUT     1100            80     240/ 14/ 20 1015.1R
ONSLOW BAY 41036 NOT AVBL
5 WRITEBCH 41038 1008            80 78  250/ 17/ 23 1015.4R
MASONBORO  41110 1019               78                N/A
WVE H/P(F/S)=  4/ 5 WND WVE H/P(F/S)=  5/ 5

WILM HARBR 41108 1011               81                N/A
WVE H/P(F/S)=  6/ 6 WND WVE H/P(F/S)=  5/ 6

27WRITEBCH 41037 1000               80  260/ 19/ 23   N/A
FRYING PAN 41013 1050            81 78  240/ 19/ 21 1017.3R
WVE H/P(F/S)=  6/ 6 WND WVE H/P(F/S)=  5/ 6 SWL H/P/D(F/S/D)=  2/190/ 9

SUNST NRSH 41024 1008            79     270/ 16/ 21 1015.8R
CAPRS NRSH 41029 1008            81        CALM     1017.3R
EDISTO     41004 1050            82 81  240/ 16/ 17 1017.2R
WVE H/P(F/S)=  6/ 6 WND WVE H/P(F/S)=  5/ 6 SWL H/P/D(F/S/D)=  2/ 8



..........OFFSHORE BUOYS BEYOND 100 NM OFFSHORE...........
.....IN A TRIANGLE---HAT TO BERMUDA TO BAHAMAS TO HAT.....


STATION/POSITION TIME  SKY/WX   TEMP    WIND        PRES    VSBY
                                AIR SEA DIR/SP/G
                 (UTC)          (F)     (DEG/KT/KT) (MB)    (MI)
150E HAT   41001 NOT AVBL
W BERMUDA  41048 1050            81 81  200/ 12/ 14 1021.4S
WVE H/P(F/S)=  5/ 8 WND WVE H/P(F/S)=  3/ 5 SWL H/P/D(F/S/D)=  3/150/ 8

ATLANTIC S 41049 1050            82 83  100/  8/ 10 1024.7R
WVE H/P(F/S)=  4/ 8 WND WVE H/P(F/S)=  2/ 4 SWL H/P/D(F/S/D)=  3/120/ 8

E BAHAMAS  41046 1050            82 83  100/ 16/ 17 1021.0R
WVE H/P(F/S)=  5/ 8 WND WVE H/P(F/S)=  3/ 6 SWL H/P/D(F/S/D)=  3/110/ 8

NE BAHAMAS 41047 1050            82 83  140/  8/ 10 1021.6R
WVE H/P(F/S)=  4/ 9 WND WVE H/P(F/S)=  2/ 3 SWL H/P/D(F/S/D)=  3/130/ 9

120E CANVRL41010 1020            83 84  180/  8/ 10 1019.6R

END


USA.gov is the U.S. government's official web portal to all federal, state and local government web resources and services.